Location: Del Amo
(33.8464°N, 118.2104°W)
Time: 07:13:20
(UTC+00:00)

Explorer 11/Cluster Stage 4 - Visible Passes

Search period start: 19 September 2024 00:00
Search period end: 29 September 2024 00:00
Orbit: 464 x 1208 km, 28.8° (Epoch: 18 September)

Date Brightness Start Highest point End Pass type
(mag) Time Alt. Az. Time Alt. Az. Time Alt. Az.
19 Sep 8.9 10:55:50 13° SE 10:55:50 13° SE 10:57:22 10° ESE visible
19 Sep 7.6 12:37:25 15° SW 12:41:33 40° SSE 12:47:36 10° E visible
20 Sep 9.2 10:38:04 10° ESE 10:38:04 10° ESE 10:38:06 10° ESE visible
20 Sep 7.4 12:19:39 23° SW 12:22:24 40° SSE 12:28:11 10° E visible
21 Sep 7.2 12:01:51 32° SSW 12:03:17 39° SSE 12:08:47 10° E visible
22 Sep 7.1 11:44:02 39° S 11:44:11 39° SSE 11:49:24 10° E visible
23 Sep 7.5 11:26:13 34° SE 11:26:13 34° SE 11:30:02 10° E visible
23 Sep 7.1 13:07:54 10° WSW 13:12:44 50° S 13:18:46 10° ESE visible
24 Sep 8.2 11:08:23 23° ESE 11:08:23 23° ESE 11:10:42 10° E visible
24 Sep 7.0 12:49:58 16° WSW 12:53:37 48° S 12:59:18 10° ESE visible
25 Sep 8.8 10:50:34 14° ESE 10:50:34 14° ESE 10:51:24 10° ESE visible
25 Sep 6.8 12:32:09 25° WSW 12:34:30 45° S 12:39:52 10° ESE visible
26 Sep 6.7 12:14:20 36° SW 12:15:25 43° S 12:20:26 10° ESE visible
27 Sep 6.7 11:56:33 40° S 11:56:33 40° S 12:01:01 10° ESE visible
28 Sep 7.5 11:38:47 28° SE 11:38:47 28° SE 11:41:38 10° ESE visible
28 Sep 7.9 13:21:15 10° WSW 13:24:47 22° SSW 13:28:53 10° SSE visible
